{"data":{"norad_id":48909,"intl_designator":"2021-059AG","name":"PACE-1","alt_names":[],"object_type":"PAYLOAD","status":"ACTIVE","operator":null,"country":"US","launch_date":"2021-06-30","launch_site_code":"AFETR","launch_vehicle":null,"mission":null,"orbit_class":"UNKNOWN","rcs_meters":null,"size_class":null,"mass_kg":null,"dimensions":null,"purposes":[],"wikipedia_slug":null,"has_3d_model":false,"image_url":null,"decayed_at":null,"tle_current":{"epoch":"2026-09-20T21:28:28.197120Z","epoch_age_seconds":63694,"freshness":"FRESH","line1":"1 48909U 21059AG  26263.89477080  .01813421  26264-5  61784-3 0  9993","line2":"2 48909  97.6642 114.8299 0004858 254.7115 105.3639 16.25558296293033","mean_motion":16.25558296,"eccentricity":0.0004858,"inclination_deg":97.6642,"raan_deg":114.8299,"arg_perigee_deg":254.7115,"mean_anomaly_deg":105.3639,"bstar":0.00061784,"rev_number":29303,"period_min":88.58494977039,"perigee_km":201.30572337387,"apogee_km":207.70141695184,"semimajor_km":6582.6405701629,"source":"CELESTRAK","updated_at":"2026-09-21T09:00:07.903734Z"}}}